| time (UTC) | temp F | wind direction | speed MPH | gust MPH | rain 1hr in | rain 24hr in | rain mn in | humidity % | barometer mb |
| 20260505220035 | 51 | 214 | 0.0 | 1.0 | 0.00 | 0.03 | 0.00 | 93 | 1009.5 |
| 20260505214535 | 51 | 0 | 0.0 | 2.0 | 0.01 | 0.03 | 0.03 | 93 | 1009.7 |
| 20260505213033 | 51 | 0 | 0.0 | 2.0 | 0.01 | 0.03 | 0.03 | 93 | 1009.7 |
| 20260505211528 | 52 | 214 | 1.0 | 3.0 | 0.01 | 0.03 | 0.03 | 92 | 1009.8 |
| 20260505210030 | 52 | 0 | 0.0 | 2.0 | 0.00 | 0.02 | 0.02 | 92 | 1009.7 |
| 20260505204534 | 52 | 252 | 0.0 | 3.0 | 0.00 | 0.01 | 0.01 | 91 | 1010.0 |
| 20260505203032 | 51 | 0 | 0.0 | 2.0 | 0.00 | 0.01 | 0.01 | 91 | 1009.9 |
| 20260505201528 | 51 | 209 | 1.0 | 3.0 | 0.00 | 0.01 | 0.01 | 91 | 1009.7 |
| 20260505200039 | 51 | 0 | 0.0 | 4.0 | 0.00 | 0.01 | 0.01 | 91 | 1009.7 |
| 20260505194528 | 52 | 192 | 2.0 | 4.0 | 0.00 | 0.01 | 0.01 | 90 | 1009.4 |
| 20260505193030 | 52 | 0 | 0.0 | 2.0 | 0.00 | 0.01 | 0.01 | 90 | 1009.3 |
| 20260505191531 | 53 | 146 | 0.0 | 2.0 | 0.00 | 0.01 | 0.01 | 90 | 1009.4 |
| 20260505190036 | 53 | 0 | 0.0 | 3.0 | 0.00 | 0.01 | 0.01 | 90 | 1009.3 |
| 20260505184528 | 54 | 219 | 2.0 | 3.0 | 0.00 | 0.01 | 0.01 | 89 | 1009.2 |
| 20260505183031 | 54 | 0 | 0.0 | 2.0 | 0.00 | 0.01 | 0.01 | 87 | 1009.1 |
| 20260505181529 | 55 | 181 | 1.0 | 3.0 | 0.00 | 0.01 | 0.01 | 87 | 1009.1 |
| 20260505180032 | 56 | 188 | 0.0 | 2.0 | 0.00 | 0.01 | 0.01 | 86 | 1009.0 |
| 20260505174538 | 55 | 0 | 0.0 | 3.0 | 0.00 | 0.01 | 0.01 | 85 | 1008.9 |
| 20260505173028 | 55 | 0 | 1.0 | 3.0 | 0.00 | 0.01 | 0.01 | 84 | 1009.0 |
| 20260505171528 | 55 | 0 | 0.0 | 3.0 | 0.00 | 0.01 | 0.01 | 87 | 1009.2 |
| 20260505170027 | 55 | 0 | 0.0 | 2.0 | 0.01 | 0.01 | 0.01 | 83 | 1008.9 |
| 20260505164529 | 56 | 173 | 2.0 | 5.0 | 0.00 | 0.00 | 0.00 | 81 | 1008.8 |
| 20260505163031 | 56 | 38 | 1.0 | 5.0 | 0.00 | 0.00 | 0.00 | 79 | 1008.2 |
| 20260505161530 | 57 | 0 | 2.0 | 9.0 | 0.00 | 0.00 | 0.00 | 78 | 1007.9 |
| 20260505153029 | 60 | 254 | 1.0 | 8.0 | 0.00 | 0.00 | 0.00 | 74 | 1008.2 |
| 20260505151531 | 60 | 294 | 4.0 | 11.0 | 0.00 | 0.00 | 0.00 | 73 | 1008.0 |
| 20260505124530 | 63 | 0 | 2.0 | 9.0 | 0.00 | 0.00 | 0.00 | 68 | 1007.9 |
| 20260505123028 | 64 | 84 | 2.0 | 6.0 | 0.00 | 0.00 | 0.00 | 69 | 1008.0 |
| 20260505121528 | 62 | 17 | 2.0 | 7.0 | 0.00 | 0.00 | 0.00 | 72 | 1007.9 |
| 20260505120030 | 62 | 295 | 3.0 | 10.0 | 0.00 | 0.00 | 0.00 | 71 | 1008.0 |
| 20260505114527 | 61 | 54 | 3.0 | 8.0 | 0.00 | 0.00 | 0.00 | 77 | 1008.3 |
| 20260505113029 | 61 | 341 | 2.0 | 8.0 | 0.00 | 0.00 | 0.00 | 75 | 1008.4 |
| 20260505111535 | 60 | 344 | 1.0 | 6.0 | 0.00 | 0.00 | 0.00 | 75 | 1008.3 |
| 20260505094528 | 55 | 295 | 1.0 | 3.0 | 0.00 | 0.00 | 0.00 | 81 | 1008.8 |
| 20260505093028 | 55 | 26 | 0.0 | 4.0 | 0.00 | 0.00 | 0.00 | 82 | 1008.9 |
| 20260505091528 | 55 | 0 | 1.0 | 4.0 | 0.00 | 0.00 | 0.00 | 83 | 1009.0 |
| 20260505090037 | 54 | 5 | 2.0 | 5.0 | 0.00 | 0.00 | 0.00 | 85 | 1008.9 |
| 20260505084531 | 53 | 0 | 0.0 | 4.0 | 0.00 | 0.00 | 0.00 | 86 | 1008.9 |
| 20260505083028 | 53 | 0 | 2.0 | 4.0 | 0.00 | 0.00 | 0.00 | 86 | 1009.1 |
| 20260505081541 | 52 | 0 | 0.0 | 0.0 | 0.00 | 0.00 | 0.00 | 89 | 1009.2 |
| 20260505080028 | 52 | 0 | 0.0 | 2.0 | 0.00 | 0.00 | 0.00 | 90 | 1009.5 |
| 20260505074529 | 51 | 0 | 0.0 | 1.0 | 0.00 | 0.00 | 0.00 | 91 | 1009.5 |
| 20260505073043 | 51 | 0 | 0.0 | 0.0 | 0.00 | 0.00 | 0.00 | 91 | 1009.6 |
| 20260505071546 | 50 | 0 | 0.0 | 0.0 | 0.00 | 0.00 | 0.00 | 92 | 1009.8 |
| 20260505070029 | 50 | 0 | 0.0 | 0.0 | 0.00 | 0.00 | 0.00 | 92 | 1010.0 |
| 20260505064528 | 49 | 239 | 0.0 | 1.0 | 0.00 | 0.00 | 0.00 | 93 | 1010.0 |
| 20260505063029 | 49 | 0 | 0.0 | 0.0 | 0.00 | 0.00 | 0.00 | 94 | 1010.1 |
| 20260505061531 | 48 | 0 | 0.0 | 2.0 | 0.00 | 0.00 | 0.00 | 94 | 1010.0 |
| 20260505060028 | 48 | 0 | 0.0 | 1.0 | 0.00 | 0.00 | 0.00 | 95 | 1010.0 |
| 20260505054547 | 47 | 0 | 0.0 | 1.0 | 0.00 | 0.00 | 0.00 | 95 | 1010.0 |
| 20260505053038 | 47 | 260 | 0.0 | 2.0 | 0.00 | 0.00 | 0.00 | 95 | 1010.0 |
| 20260505051535 | 46 | 262 | 1.0 | 2.0 | 0.00 | 0.00 | 0.00 | 95 | 1009.8 |
| 20260505041528 | 46 | 0 | 0.0 | 0.0 | 0.00 | 0.00 | 0.00 | 95 | 1010.1 |
| 20260505040040 | 46 | 0 | 0.0 | 0.0 | 0.00 | 0.00 | 0.00 | 95 | 1010.0 |
| 20260505034529 | 46 | 0 | 0.0 | 0.0 | 0.00 | 0.00 | 0.00 | 95 | 1010.1 |
| 20260505033036 | 46 | 0 | 0.0 | 0.0 | 0.00 | 0.00 | 0.00 | 95 | 1010.0 |
| 20260505031529 | 46 | 0 | 0.0 | 3.0 | 0.00 | 0.00 | 0.00 | 95 | 1010.1 |
| 20260505030028 | 45 | 202 | 0.0 | 2.0 | 0.00 | 0.00 | 0.00 | 95 | 1010.3 |
| 20260505024527 | 45 | 202 | 0.0 | 4.0 | 0.00 | 0.00 | 0.00 | 95 | 1010.4 |
| 20260505023027 | 45 | 202 | 1.0 | 4.0 | 0.00 | 0.00 | 0.00 | 94 | 1010.6 |
| 20260505021530 | 45 | 0 | 0.0 | 0.0 | 0.00 | 0.00 | 0.00 | 94 | 1010.6 |
| 20260505020028 | 45 | 0 | 0.0 | 0.0 | 0.00 | 0.00 | 0.00 | 94 | 1010.7 |
| 20260505014530 | 46 | 232 | 0.0 | 2.0 | 0.00 | 0.00 | 0.00 | 94 | 1010.9 |
| 20260505013029 | 46 | 0 | 0.0 | 3.0 | 0.00 | 0.00 | 0.00 | 94 | 1010.9 |
| 20260505011528 | 46 | 0 | 0.0 | 0.0 | 0.00 | 0.00 | 0.00 | 93 | 1010.9 |
| 20260505010028 | 46 | 0 | 0.0 | 0.0 | 0.00 | 0.00 | 0.00 | 93 | 1011.0 |
| 20260505004533 | 46 | 0 | 0.0 | 1.0 | 0.00 | 0.00 | 0.00 | 93 | 1011.4 |
| 20260505003028 | 47 | 211 | 0.0 | 1.0 | 0.00 | 0.00 | 0.00 | 93 | 1011.7 |
| 20260505001528 | 47 | 0 | 0.0 | 0.0 | 0.00 | 0.00 | 0.00 | 92 | 1011.8 |
| 20260505000029 | 48 | 0 | 0.0 | 3.0 | 0.00 | 0.00 | 0.00 | 92 | 1012.0 |
| 20260504234528 | 48 | 211 | 1.0 | 4.0 | 0.00 | 0.00 | 0.00 | 93 | 1012.0 |
| 20260504233028 | 48 | 187 | 3.0 | 5.0 | 0.00 | 0.00 | 0.00 | 93 | 1012.2 |
| 20260504231530 | 48 | 189 | 3.0 | 5.0 | 0.00 | 0.00 | 0.00 | 93 | 1012.5 |
| 20260504230029 | 47 | 202 | 1.0 | 4.0 | 0.00 | 0.00 | 0.00 | 93 | 1012.5 |
| 20260504224529 | 47 | 180 | 1.0 | 3.0 | 0.00 | 0.00 | 0.00 | 92 | 1012.5 |
| 20260504223028 | 48 | 0 | 1.0 | 3.0 | 0.00 | 0.00 | 0.00 | 92 | 1012.6 |
| 20260504221530 | 48 | 0 | 0.0 | 3.0 | 0.00 | 0.00 | 0.00 | 92 | 1012.8 |